Farmington, MO

10:32 PM CST on November 17, 2019 (GMT -0600)
Farmington Regional

Weather History for KFAM - June, 2019

Change the Weather History Date:

Wednesday, June 12, 2019

  Actual Average Record
Temperature  
Mean Temperature 60 °F -  
Max Temperature 70 °F 79 °F 93 °F (2016)
Min Temperature 53 °F 60 °F 53 °F (2019)
Degree Days  
Heating Degree Days 4    
Growing Degree Days 10 (Base 50)    
Moisture  
Dew Point 56 °F    
Average Humidity 84    
Maximum Humidity 97    
Minimum Humidity 59    
Precipitation  
Precipitation 0.02 in - - ()
Sea Level Pressure  
Sea Level Pressure 29.96 in    
Wind  
Wind Speed 2 mph (West)    
Max Wind Speed 10 mph    
Max Gust Speed -    
Visibility 10 miles    
Events Rain    
Averages and records for this station are not official NWS values.
T = Trace of Precipitation, MM = Missing Value Source: NWS Daily Summary

Daily Weather History Graph

Daily Weather History Graph

Search for Another Location

Airport or City:

Astronomy

Jun. 12, 2019 Rise Set
Actual Time 5:39 AM CDT 8:24 PM CDT
Civil Twilight 5:08 AM CDT 8:55 PM CDT
Nautical Twilight 4:29 AM CDT 9:34 PM CDT
Astronomical Twilight 3:45 AM CDT 10:18 PM CDT
Moon 3:37 PM CDT (6/12) 2:47 AM CDT (6/12)
Length of Visible Light 15h 47m
Length of Day
14h 44m
Waxing Gibbous, 77% of the Moon is Illuminated
Jun 12
Waxing Gibbous
Jun 17
Full
Jun 25
Last Quarter
Jul 2
New
Jul 9
First Quarter

Hourly Weather History & Observations

Time (CDT) Temp. Dew Point Humidity Pressure Visibility Wind Dir Wind Speed Gust Speed Precip Events Conditions
12:56 AM 57.0 °F 55.0 °F 93% 30.04 in 10.0 mi Calm Calm - N/A   Clear
1:56 AM 55.0 °F 54.0 °F 96% 30.02 in 4.0 mi Calm Calm - N/A   Clear
2:56 AM 53.1 °F 52.0 °F 96% 30.02 in 10.0 mi West 3.5 mph - N/A   Clear
3:56 AM 53.1 °F 52.0 °F 96% 30.01 in 10.0 mi Calm Calm - N/A   Clear
4:56 AM 53.1 °F 52.0 °F 96% 30.00 in 10.0 mi Calm Calm - N/A   Clear
5:56 AM 54.0 °F 53.1 °F 97% 30.00 in 10.0 mi Calm Calm - N/A   Clear
6:56 AM 55.9 °F 54.0 °F 93% 29.99 in 10.0 mi Calm Calm - N/A   Clear
7:56 AM 60.1 °F 55.9 °F 86% 29.99 in 10.0 mi Calm Calm - N/A   Clear
8:56 AM 62.1 °F 55.9 °F 80% 29.97 in 10.0 mi Calm Calm - N/A   Overcast
9:56 AM 63.0 °F 55.0 °F 75% 29.97 in 10.0 mi South 4.6 mph - N/A   Overcast
10:56 AM 64.9 °F 57.0 °F 75% 29.97 in 10.0 mi Variable 3.5 mph - N/A   Overcast
11:56 AM 68.0 °F 55.0 °F 63% 29.95 in 10.0 mi WSW 5.8 mph - N/A   Mostly Cloudy
12:56 PM 68.0 °F 53.1 °F 59% 29.94 in 10.0 mi WSW 10.4 mph - N/A   Mostly Cloudy
1:56 PM 64.9 °F 55.9 °F 73% 29.93 in 10.0 mi West 5.8 mph - 0.00 in Rain Light Rain
2:56 PM 64.0 °F 57.9 °F 80% 29.92 in 10.0 mi WNW 5.8 mph - 0.00 in   Overcast
3:56 PM 62.1 °F 59.0 °F 90% 29.91 in 10.0 mi North - - 0.01 in Rain Light Rain
4:56 PM 64.0 °F 59.0 °F 84% 29.90 in 10.0 mi WSW 5.8 mph - 0.01 in   Mostly Cloudy
5:07 PM 64.4 °F 59.0 °F 83% 29.91 in 10.0 mi WSW 3.5 mph - N/A   Mostly Cloudy
5:43 PM 64.4 °F 59.0 °F 83% 29.91 in 10.0 mi Variable 4.6 mph - N/A   Overcast
5:56 PM 64.0 °F 59.0 °F 84% 29.89 in 10.0 mi North - - N/A   Overcast
6:56 PM 64.0 °F 57.9 °F 80% 29.90 in 10.0 mi WNW 4.6 mph - 0.00 in   Clear
8:56 PM 61.0 °F 57.9 °F 90% 29.92 in 10.0 mi WNW 9.2 mph - N/A   Scattered Clouds
9:56 PM 61.0 °F 55.0 °F 81% 29.94 in 10.0 mi WNW 5.8 mph - N/A   Overcast
10:56 PM 59.0 °F 54.0 °F 83% 29.94 in 10.0 mi WNW 5.8 mph - N/A   Partly Cloudy
11:56 PM 57.0 °F 54.0 °F 89% 29.94 in 10.0 mi Variable 4.6 mph - N/A   Clear